Espace membre
Imprimable
Challenges > Delhalle - Louette St Pierre, 23/07/2011, BEL - L'Ardennaise
Liste des rapports > Delhalle - 22.8km - Classement
Recherche: Page: [1]
148 Entrées
 
Les réclamations ne sont plus acceptées, les résultats sont considérés comme définitifs.
RangNrNomAgeIOCLigueEquipeRéelTempsTkmMoy.ScrPtsLocalité
1.834FAYMONVILLE Jean-Marc51BELSPAJCPMF1:31:411:31:424:02 14.92161003WAIMES
2.11DUBOIS Michel54BELHERV1:31:521:31:524:02 14.89171001WELKENRAEDT
3.230SANCHEZ POSADA Luis51BELUSBWCACE1:35:241:35:254:12 14.3425958RHODE ST GENESE
4.6BULTOT Christian53BELARCHJOGGPLUS1:35:441:35:464:12 14.2926953SCHALTIN
5.291PAULY Michel50BELHERV1:36:151:36:164:14 14.2127947BOLLAND
6.921ROSSI Claude53BELJOGGPLUS1:38:291:38:324:20 13.8935919YVOIR
7.677PAULUS Philippe50BELESM1:38:581:39:044:21 13.8137913MONT-SUR-MARCHIENNE
8.165SCHALKWIJK Benoît51BELARCH1:40:461:40:584:26 13.5542892TONGRINNE
9.625WOOLF Alain50BELFCHAL'AVENIR1:41:561:42:004:29 13.4147877DONCEEL
10.2719GERARD Regis51FRAASPTT CHALONS1:42:081:42:144:30 13.3849874
11.2625GODART Gilles54FRA1:43:251:43:284:33 13.2261855
12.998HEMERYCK Willy52BELSODG1:43:471:43:524:34 13.1766848SINT-KRUIS BRUGGE
13.58HENRY Andre51BELTENDONS1:43:551:43:584:34 13.1669845LA HULPE
14.181LABBE J.Marie51BEL1:44:001:44:034:34 13.1574841EGHEZEE
15.2675GOOSSE Gerard59BEL1:44:451:45:034:37 13.0287827ARVILLE
16.645CREMER Patrick53BELFCHA1:46:151:46:204:40 12.8792809HANNUT
17.714MAILIER Christian55BELCRACESM1:46:421:46:494:42 12.8198801ROUX
18.2613RENARD Patrick Gilbert52BELACOACO1:46:481:46:554:42 12.80101799REMICOURT
19.535ROMBAUX Marc51BELCSDY1:47:191:47:334:43 12.72104792LOUVAIN LA NEUVE
20.2626VALANGE Jean501:47:341:47:404:44 12.71105789
21.146VAN NEVEL Frans57BELBEHO1:48:231:48:304:46 12.61108780BRUGGE
22.2518GIELKENS Ruddi52BELSACN1:49:171:49:284:49 12.50113768
23.179LHOTTE René58FRAHRC1:49:581:50:044:50 12.43118759TERMES
24.2533KÖHLER Uli50DEUBESIGHEIM (D)1:50:131:50:344:51 12.37121755BESIGHEIM
25.2685LEPIED Philippe51BEL1:51:301:51:334:54 12.26129739
26.2577SMEETS Jef56BELSACN1:51:351:51:474:55 12.24132736
27.429DENEFFE Philippe50BELJCHOUYET1:52:261:52:374:57 12.15136726HOUYET
28.521RAEYMAEKERS Ludovic57BELBRABO1:53:061:53:124:58 12.09137720EKEREN
29.909HUME Yvan58BELNAC1:52:291:53:154:59 12.08138725NIVELLES
30.71DE HERTOG Daniel52BELGRIM1:53:111:53:214:59 12.07140717GRIMBERGEN
31.184LEFEBVRE Daniel56BELETCHIEVR1:53:041:53:385:00 12.04143716CHIEVRES
32.2631CIRELLI Mario59BELCRAC CHARLEROI1:53:251:53:515:00 12.02145712JUMET
33.22DE MASI Gianni58ITAFLEU1:53:591:54:085:01 11.99148705WANFERCEE BAULET
34.2742BAUDSON Jacques52BELCEPAL1:54:021:54:135:01 11.98150704GOSSELIES
35.2741BAUDSON Marcel51BELWYETH1:54:021:54:145:01 11.98151703BRUXELLES
36.462BISIAU Philippe50FRA1:54:191:54:365:02 11.94152700LILLE
37.194AUBERT Serge56BELDONDORGANES1:54:401:54:445:02 11.92154696GERPINNES
38.580HOMBROUX Marcel58BELHANUT JOG1:55:451:55:595:06 11.80164680MONTENAKEN
39.2689DA CRUZ Jean55BELMIB1:55:441:56:015:06 11.79166679NAMUR
40.513MOUSNY Bernard56BEL1:56:591:57:025:08 11.69172665COUTHUIN
41.2680LOMGIN Pieter51BEL1:58:041:58:175:12 11.57180651
42.2597VERBAERE Pascal52BELKURISTO1:58:401:58:555:13 11.50185643BRUXELLES
43.992LETHE Vincent51BELRONVAU1:59:171:59:295:15 11.45190634TOURINNES-SAINT-LAMBERT
44.2074JANSSENS Philippe57BELINFRABEL1:59:271:59:415:15 11.43193632WALCOURT
45.737DE PESSEMIER Michel54BELACG1:59:582:00:045:16 11.39198624BRAKEL
46.2579STREBER Georges57BELSMAC1:59:372:00:045:16 11.39199627NAMUR
47.2058BINKERT Marc50BELLDLV1:59:222:00:065:17 11.39200628GANSHOREN
48.2623VAILLANT Gerard54FRA2:01:292:01:295:20 11.26219599
49.2726CLAOS Jean-Pierre50BEL2:01:132:02:275:23 11.17231594
50.2057BEGAUX Jean55BELJTRR2:02:022:02:305:23 11.17232587PRESGAUX
51.2763FOULON Damel53BEL2:02:292:02:405:23 11.15233583
52.2609COLIGNON Charles52BEL2:02:352:03:035:24 11.12238579CHAMPION
53.561HAINAUT Charles52BEL2:02:502:03:045:24 11.12239576GERPINNES
54.2769IDRISSON Seghir552:02:452:03:095:25 11.11242576
55.623PISCART Pierre51BELMOHAFORESTIERE2:03:212:03:285:25 11.08245568HAVRE
56.2586TUYLS Bruno56BEL2:03:162:03:415:26 11.06251566BIERBEEK
57.2588UZELAC Billy56DEUBESIGHEIM (D)2:03:192:03:415:26 11.06252565BESIGHEIM
58.2627GOFFIN Pascal52FRA2:03:172:03:435:26 11.06253564
59.898COLONVAL Jean52BELBOUFFIOL2:03:502:03:575:27 11.04258557GERPINNES
60.915JASPART Andre56BEL2:03:462:04:075:27 11.02259557SOURBRODT
61.2709SLAETS Dirk54BEL2:04:252:04:545:29 10.95264549GEEL
62.55ROBERTI DE WINGHE Max56BELLACRONVAU2:04:422:04:555:29 10.95265546ARCHENNES
63.683DE LEENER J.Marie57BELNAC2:06:072:06:105:33 10.84274529LOT
64.531ANTENUCCI Mauro54BELFLEUESM2:06:082:06:335:34 10.81276528GOSSELIES
65.138SORNASSE Pascal52BELSMAC2:06:132:06:375:34 10.81277527BEUZET
66.2730SEVRIN Bernard59BELTAF2:07:282:07:505:37 10.70288510MARCHE
67.2097DASNOIS Michel56BEL2:08:002:08:105:38 10.67295502BOUILLON
68.526NORMAND Daniel50BELJCCS2:08:372:08:375:39 10.64302493RIENNE
69.2628ROSSI Toni512:08:302:08:555:40 10.61305492
70.433EVRARD Michel54BELARCH2:08:372:09:095:40 10.59309489CINEY
71.2598VERBEEK Jean-Luc57BEL2:08:462:09:205:41 10.58313485BOUSVAL
72.2641GAILLARD Jean Pierre502:08:572:09:355:41 10.56314483
73.2063DELPORT Patrick56BEL2:09:352:10:285:44 10.49319475ANDERLECHT
74.849ABRAHAM Luc54BELUSBWROAD TEAM B2:10:042:10:295:44 10.48321471WATERLOO
75.2072GUIOT Jacques54BEL2:10:252:10:445:45 10.46323467HARGNIES
76.2537LEDRU Sylvain57FRAFJEP ATTIGNY2:10:342:10:475:45 10.46324465
77.2513GAGEOT Pascal50FRAPSA PEUGEOT CITROËN2:10:432:10:545:45 10.45325463CHARLEVILLE-MÉZIÈRES
78.912GILSON Raymond53BELHRC2:10:532:11:045:45 10.44327461SAINT-LEGER
79.616NOEL Gerard59BELARCH2:11:342:11:405:47 10.39332453NATOYE
80.870CUVELIER Luc53BELTORTUES2:11:592:12:135:48 10.35333449BASSILLY
81.2615DUCOBU Philippe Léon52BELJET2:11:382:12:155:48 10.35336450MERCHTEM
82.2753GOORTS Peter50BEL2:12:272:13:025:51 10.28342440LANDEN
83.754LARMINIER Claude57BELSERSERUNNER2:13:022:13:095:51 10.27343435LIEGE
84.68BEAU Christian59BELSPIBOR2:13:012:13:195:51 10.26344434JURBISE
85.385BLOMMAERT Edward58BELAVN2:13:112:13:325:52 10.24345432BOUILLON
86.2573SHEPHERD Iain57GBRCACE2:13:332:13:435:52 10.23346429BRUXELLES
87.113MASSART Victor58BELACLO2:13:162:13:575:53 10.21350429COUILLET
88.2524GRANDFILS Eric54BELSPIBO2:13:592:14:165:54 10.19355421BELLIGNIES
89.224BARBIER Yves51BELUSBWSO BARLIN2:13:592:14:255:54 10.18362417BRAINE-L'ALLEUD
90.700FIVET Alain58BEL2:14:092:14:295:54 10.17364414WEPION
91.2658HENRICOT Eric50BELINFRABEL2:13:592:14:325:55 10.17365415SAINT MARC
92.665LACAILLE Guy59BELPLONG MARAT2:14:092:14:345:55 10.17366413NIVELLES
93.585MOENS Alain57BELCEPAL2:14:542:14:595:56 10.14370405KRAAINEM
94.346LELOUP Yves57BELFLEU2:15:062:15:295:57 10.10376400SAINT-AMAND
95.567DECLERCQ Joe53BELCEPAL2:15:302:15:425:58 10.08379395BRUXELLES
96.2519GILLE Daniel56BELJ.T.R.R.2:16:242:16:516:01 10.00386385COUVIN
97.197MICHA Pol59BELEPIDEMIE2:16:322:16:556:01 9.99388382JUPRELLE
98.2760LEDUC Robert542:17:232:17:536:03 9.92393373
99.64DEWIGNE Bernard54BELCSDY2:17:192:17:576:04 9.92394373OTTIGNIES
100.413LIVEMONT Emmanuel50BELRRTCHATEL2:17:252:18:226:05 9.89397371SUARLEE
101.2108KENNES Christian57BEL2:17:442:18:346:05 9.87399367BRUXELLES
102.2088STREBER Fernand56BELARCHARCH2:19:032:19:076:07 9.83401356SERINCHAMPS
103.2110DELHASSE Jean-Marc52BELAC NEUPRE2:18:302:19:116:07 9.83402360NEUPRÉ
104.2656BIERNAUX Benoit Marie50BELRCNAMUR2:18:472:19:166:07 9.82403357NAMUR
105.2558PARLIER Serge52BELVALLEE DU HAIN2:19:182:19:316:08 9.81406351BRAINE LE CHATEAU
106.755VAN HEULENBERGHE Frank55BEL2:18:512:19:376:08 9.80407354GENT
107.318STICKER Johan52BELOXYGENE2:20:052:20:506:11 9.71419338BIERCEE
108.2473CAMPERS Gerald51BEL2:21:002:21:336:13 9.67422330SAINT-MARC
109.229HENRY Stephane51BELJCCS2:21:062:21:356:13 9.66423329GEDINNE
110.2712BANDIN Marc55BELJAMES2:21:072:21:406:13 9.66425327COURT SAINT ETIENNE
111.2089VAN BOVEN Eddy56BELJC WAARSCHOOT2:21:362:21:456:13 9.65427323SCHOONAARDE
112.208BOUTEFEU Jacques51BELESMRRTCHATELET2:21:482:22:336:16 9.60432318MONTIGNIES-SUR-SAMBRE
112.107EVRARD Pierre50BEL2:21:492:22:336:16 9.60432318MALONNE
114.2743CEULENAERE Paul50BELPORTE DE HAL2:22:172:22:536:16 9.57436313BRUXELLES
115.2481COMPERE Philippe54BEL2:22:502:23:296:18 9.54439307DILBEEK
116.504MICHEL Daniel53BELRIWA2:23:292:23:546:19 9.51441301RIXENSART
117.2062DE WILLEMACKER Carlos57BEL2:24:022:24:206:20 9.48444296AALTER
118.276MARIËN Jean-Luc53BELUSBW2:24:232:24:576:22 9.44446292BRUXELLES
119.2511FONTAINE Marc54BELSPRIMONTJUDOTEAM2:26:392:27:296:29 9.28455271SPRIMONT
120.2644LEDRU Luc54FRAWARMERIVILLE2:27:392:27:546:30 9.25462260WARMERIVILLE
121.91GEERAERTS Jos51BELCSFMYSTERE2:27:562:28:336:31 9.21463257BUIZINGEN
122.448ROMAIN Bernard54BELDELT LONG2:28:132:28:396:32 9.20464255CHASTRE
123.2652VAN ROMPAIJ Alain55BELJTRR (COUVIN)2:28:562:29:246:34 9.16472245PHILIPPEVILLE
124.2607DUPONT Henri51BEL2:29:122:29:406:34 9.14475242OVERIJSE
125.59LIEGEOIS J.Louis59BELLAC2:30:022:30:166:36 9.10476235HEVERLEE
126.2618LAMOUREUX Johann53BEL2:30:002:30:356:37 9.09480233
127.2490DE VREESE Jean-Claude59BELJAMES LOUVAIN LA NEUVE2:31:132:31:136:38 9.05482224GENAPPE
128.2568RENAUDIN Christian58FRAFJEP ATTIGNY2:31:022:31:176:39 9.04483225
129.2107WIJNEN Luc50BELRIWALBFA2:31:492:32:386:42 8.96498211LIMELETTE
130.2515GEBOERS Louis54BELSACN2:32:072:32:516:43 8.95502206
131.249PIRSON Patrice54BELJCCS2:35:122:35:596:51 8.77518177GEDINNE
132.2734FLORKIN Marc58BEL2:35:522:36:176:52 8.75519172
133.2636PLISSON Patrick59BELDEVILLE SPORTS2:36:352:37:106:54 8.71525164
134.2629CHANZY Joel58FRAATHLETIC BELAIR CLUB2:37:252:38:086:57 8.65527157
135.148BERTRAND Claude54BELSMAC2:38:042:38:296:58 8.63528152FLAWINNE
136.888RUBINO Michel51BELUACRRTCHATEL2:39:422:40:347:03 8.52530141CHATELET
137.257LUKOJ-NAWEJ Jim59BELIXEL2:40:512:40:517:04 8.50531133BRUXELLES
138.2516GEENS Steven58BELSACN2:44:012:44:197:13 8.33537109
139.2115JOIRET Yvan Gustave57BEL2:44:072:44:527:14 8.30538108WANZE
140.295COPPE Stephane57BEL2:52:382:53:237:37 7.8955348BRUXELLES
141.2781COPPIETERS Bruno55BEL2:52:522:53:437:38 7.8755545GENVAL
142.2471BURLET Pol59BEL2:58:382:59:087:52 7.6455910ROCHEFORT
143.869GENOT Yves55BELENJAMBEE2:59:573:00:177:55 7.595608BRUXELLES
144.2643MÉLARD Michel Fernand57BELLE JOUR3:03:003:03:268:03 7.465655OUPEYE
145.183DE BLIECK Philippe59BEL3:08:073:08:078:16 7.275684BRUXELLES
146.635PANNEELS Jean-Jacques59BELAXA RUN TEA3:58:063:58:0610:27 5.755731MELLERY
DNF2494DELHASSE Pierre54BELBAILLAMONT
DNF2065DEWAELE Philippe50BELTHIBESSART
DNF: abandon; DSQ: disqualifié; Vitesse en km/h
Page: [1]